Back to catalog

DELTA 1 DEB

AliveSSO
NORAD 37669·DEBRIS·🇺🇸 United States

Launched Mar 5, 1978 from Vandenberg Space Force Base

Loading…

Next Passes (next 24 hours)

TLE

FreshSource: Space-Track

Epoch: Sep 14, 2026, 08:08 UTC

1 37669U 78026KG  26257.33924949  .00000045  00000-0  55880-4 0  9998
2 37669  99.1459 290.3279 0011098 222.1553 202.7465 14.05492682282000

Track DELTA 1 DEB in real time with AllMySat

Download on the App Store